Temperature
28 29 29 28 28 29 29 29 30 30 30 30 30 29 27 26 25 24 23 22 21 20 20 20 20 20 20 20 19 19 19 19 18 18 18 18 17 17 17 16 16 16 16 16
26 27 28 28 28 29 29 29 30 30 30 30 29 27 26 25 24 24 23 22 20 20 20 20 20 20 20 19 19 19 19 18 18 17 17 17 17 17 16 16 16 16 16 15
26 27 27 27 28 28 29 29 29 29 29 29 28 27 26 25 24 23 22 21 20 20 19 19 19 20 19 19 19 19 18 18 17 17 17 17 16 16 16 16 16 15 15 15
26 26 25 27 28 28 29 29 29 29 29 28 27 26 25 24 23 23 22 21 20 19 19 19 19 19 19 19 18 18 18 17 17 17 17 16 16 16 15 15 15 15 15 15
26 25 26 26 27 27 28 27 28 28 28 27 25 24 24 23 22 22 21 20 19 19 19 19 19 19 19 18 18 18 17 17 17 17 16 16 16 15 15 15 15 14 14 14
25 25 25 26 27 26 27 27 27 26 26 25 25 27 25 21 21 20 20 19 19 19 18 18 18 18 18 18 18 17 17 17 17 16 16 16 15 15 14 14 14 14 14 13
25 25 26 26 25 25 26 26 25 25 25 24 25 25 22 20 19 19 18 18 18 18 18 18 18 18 18 17 17 17 16 16 16 16 15 15 15 14 14 14 13 13 13 13
25 25 25 24 25 25 24 23 23 23 23 23 22 20 19 19 18 18 18 18 18 18 18 18 18 18 17 17 17 16 16 16 16 15 15 14 14 14 13 13 13 13 12 12
25 24 22 22 22 21 21 21 22 22 22 21 20 19 19 18 18 17 17 17 17 17 17 17 17 17 17 17 16 16 16 15 15 15 14 14 13 13 13 13 13 12 12 11
23 22 21 21 20 20 20 20 20 20 20 20 19 19 18 17 17 17 17 16 17 17 17 17 16 16 16 16 16 15 15 15 14 14 14 13 13 13 13 12 12 12 12 11
22 21 21 20 19 19 19 19 20 20 20 19 19 18 17 17 16 16 16 16 16 16 16 16 16 16 16 15 15 15 15 14 14 13 13 13 13 12 12 12 12 12 11 11
22 20 21 20 19 19 19 19 19 19 19 18 18 17 17 16 16 16 16 16 16 16 16 16 15 15 15 15 14 14 14 13 13 13 13 12 12 12 12 12 11 11 11 11
18 18 18 18 18 18 18 18 18 18 18 18 17 17 16 16 16 15 15 15 15 15 15 15 15 15 14 14 14 14 13 13 13 12 12 12 12 11 11 11 11 10 10 10
16 17 18 17 18 17 17 17 17 17 17 17 16 16 16 15 15 15 15 15 15 15 15 14 14 14 14 14 13 13 13 13 12 12 12 12 11 11 10 10 10 10 9 9
16 17 17 17 17 17 17 17 17 17 16 16 16 15 15 15 15 14 14 14 14 14 14 14 14 14 13 13 13 13 12 12 12 12 11 11 11 11 10 10 10 9 9 9
16 16 16 16 16 16 16 16 16 16 16 15 15 15 15 15 14 14 14 14 14 13 13 13 13 13 13 13 12 12 12 12 12 11 11 11 11 10 10 10 10 10 9 9
16 16 16 16 16 16 16 16 16 15 15 15 15 14 14 14 14 14 14 13 13 13 13 13 13 13 12 12 12 12 11 11 11 11 11 11 10 10 10 10 10 9 9 9
15 16 16 16 15 15 15 15 15 15 15 15 14 14 14 14 13 13 13 13 13 13 12 12 12 12 12 12 12 11 11 11 11 11 10 10 10 10 10 10 9 9 9 8
14 15 15 15 15 15 14 14 14 14 14 14 14 14 14 13 13 13 13 13 12 12 12 12 12 12 12 11 11 11 11 11 11 10 10 10 10 10 10 9 9 9 9 8
14 14 14 14 14 14 14 14 14 13 13 13 13 13 13 13 13 13 12 12 12 12 12 12 11 11 11 11 11 11 11 11 10 10 10 10 10 9 9 9 9 9 8 8
13 13 13 13 13 13 13 13 13 13 13 13 13 13 12 12 12 12 12 12 11 12 11 11 11 11 11 11 11 10 10 10 10 10 10 9 9 9 9 9 8 8 8 8
12 12 13 13 13 12 13 13 13 13 13 13 12 12 12 12 12 11 11 11 11 11 11 11 10 10 10 10 10 10 10 10 10 9 9 9 9 9 8 8 8 8 8 7
12 12 12 12 12 12 12 12 12 12 12 12 12 12 12 11 11 11 11 11 11 11 10 10 10 10 10 10 10 10 9 9 9 9 9 9 8 8 8 8 8 8 7 7
11 11 11 11 11 11 11 11 11 11 11 11 11 11 11 11 11 11 11 11 11 10 10 10 10 10 9 9 9 9 9 9 9 9 9 9 8 8 8 8 8 7 7 7
10 10 11 11 11 11 11 11 11 11 11 11 11 11 11 11 11 10 10 10 10 10 10 10 10 9 9 9 9 9 9 9 9 9 8 8 8 8 8 8 7 7 7 7
10 10 10 10 10 11 11 11 11 11 11 10 10 10 10 10 10 10 10 10 9 9 9 9 9 9 9 9 9 9 9 8 8 8 8 8 8 8 8 7 7 7 7 7
10 10 10 10 10 10 10 10 11 10 10 10 10 10 10 10 9 9 9 9 9 9 9 9 9 9 9 9 9 9 8 8 8 8 8 8 8 7 7 7 7 7 7 6
Wind_Speed
10 7 13 16 18 18 19 17 14 13 12 9 8 6 6 7 7 9 9 10 10 10 10 9 9 8 8 8 7 7 7 6 5 5 5 5 4 4 3 3 4 4 4 5
11 10 11 14 16 18 18 17 16 13 11 7 6 6 7 8 8 9 10 10 10 10 10 10 9 8 8 8 8 8 8 7 6 7 7 6 6 6 6 6 6 5 6 7
12 12 11 15 15 16 16 16 15 14 10 8 8 8 8 8 8 9 10 11 11 10 10 10 9 9 9 9 9 9 8 8 8 8 8 7 7 7 7 7 7 7 7 7
10 12 15 7 7 11 13 12 12 10 8 8 7 6 6 6 8 9 10 11 11 10 11 10 10 10 10 10 10 10 9 9 9 8 8 8 7 7 7 7 7 7 7 7
10 13 11 6 7 9 11 10 10 10 8 7 6 6 5 5 7 9 10 11 11 11 11 11 11 11 11 11 10 10 9 9 9 9 9 8 8 7 7 7 7 7 7 7
11 13 12 8 7 5 7 10 7 8 8 9 9 9 6 7 8 10 11 11 12 12 12 12 11 11 11 10 10 9 9 9 9 9 9 9 8 7 7 7 7 7 8 7
13 11 7 5 6 7 10 5 6 7 8 9 7 2 8 10 10 11 12 12 12 12 11 11 11 11 11 10 10 9 9 9 9 9 9 9 8 7 7 7 8 8 8 8
12 12 7 6 7 5 1 3 4 5 6 6 5 9 11 11 11 12 12 12 12 11 11 10 10 11 11 10 10 9 9 9 9 8 8 8 8 7 7 7 8 8 7 7
6 3 5 4 2 2 1 2 3 4 5 7 9 11 12 12 12 12 12 12 11 12 12 10 9 10 11 10 9 9 9 9 9 8 8 7 7 7 6 6 6 6 6 6
4 4 5 4 3 2 2 2 3 4 6 8 10 12 12 11 11 11 11 11 11 12 12 10 9 10 11 10 9 10 10 9 9 8 8 8 6 5 5 5 5 5 5 5
4 5 5 5 3 3 3 3 4 5 7 9 11 12 12 11 11 10 10 10 10 10 11 11 10 10 10 10 10 10 10 9 8 8 9 8 8 7 6 7 5 4 5 5
3 4 2 4 2 3 4 5 6 7 8 9 10 12 12 10 9 10 10 9 9 10 11 11 10 10 9 9 9 10 9 8 7 7 7 7 9 9 15 12 14 15 13 9
1 1 2 3 3 4 5 6 7 8 9 10 10 11 11 10 9 10 10 10 10 10 10 10 10 9 9 9 9 8 8 7 6 7 7 7 7 8 8 9 12 13 12 12
1 2 3 3 4 4 6 7 8 9 9 9 9 10 10 10 9 9 9 9 10 10 10 10 10 9 8 8 9 8 8 7 7 6 6 6 6 6 6 7 7 7 8 10
2 2 3 4 5 5 7 8 9 9 9 9 9 9 9 9 8 8 8 9 10 10 10 10 9 9 8 8 9 9 8 7 6 6 6 6 6 6 6 7 7 7 7 7
2 4 5 5 5 6 7 8 8 8 8 8 7 7 8 9 8 8 8 9 10 10 9 9 9 8 8 9 9 7 6 8 7 7 6 6 6 6 6 6 6 6 6 6
3 4 5 5 6 6 6 7 7 7 8 8 8 8 8 9 9 8 8 8 8 9 9 9 9 9 8 9 8 8 8 8 7 7 6 6 6 6 6 6 6 5 5 5
2 2 4 6 6 6 6 6 6 7 7 7 8 8 8 8 8 8 8 9 9 9 8 9 9 9 9 8 7 7 8 8 7 6 6 6 6 6 6 5 6 6 7 7
3 3 3 4 5 6 6 6 6 6 6 7 8 7 7 7 8 8 9 9 9 9 8 9 9 9 9 8 7 7 7 8 7 7 7 7 6 6 6 6 6 6 6 5
3 3 3 4 5 5 6 6 6 6 6 7 7 7 7 7 8 9 9 8 6 7 9 10 10 8 9 8 6 7 8 8 8 8 7 7 6 6 6 6 6 6 5 4
3 4 4 5 4 5 5 6 6 6 6 7 7 7 8 8 8 8 8 8 7 9 10 10 8 8 8 7 5 7 8 8 8 7 7 7 6 6 6 5 5 5 5 4
3 4 4 5 5 5 5 5 6 7 7 7 7 8 8 9 8 8 7 7 9 8 8 8 7 9 9 8 7 8 8 8 7 7 6 6 6 5 5 5 5 5 4 4
3 3 4 4 5 5 5 5 6 6 7 7 8 8 8 7 7 7 7 7 9 8 7 8 10 12 9 8 8 8 8 8 7 7 6 6 5 5 5 5 5 5 4 4
3 3 4 4 4 5 6 6 6 6 6 6 7 7 7 7 6 6 7 10 9 9 7 11 13 11 7 7 8 8 7 7 6 6 6 6 5 5 5 5 4 4 4 3
3 3 3 4 4 5 5 6 7 7 7 6 7 7 6 6 7 8 9 11 11 10 9 11 11 9 7 7 8 7 7 6 6 6 6 5 5 5 5 5 4 3 3 2
3 2 2 2 3 4 4 5 6 6 7 7 7 6 7 7 8 8 8 10 11 9 9 9 8 8 7 7 7 7 7 8 7 6 6 5 5 5 5 5 5 3 2 2
3 3 3 3 4 4 4 5 6 7 7 8 8 7 8 8 8 9 10 9 9 8 8 8 8 7 7 7 7 7 7 6 6 5 5 5 5 5 5 5 3 3 2 2
Wind_Direction
236 217 204 206 206 208 217 227 233 228 230 213 199 193 176 163 154 151 149 145 142 142 139 138 137 136 134 133 133 132 132 126 126 125 120 116 112 104 96 96 98 95 95 89
214 211 208 211 212 212 218 226 234 236 229 216 192 183 178 174 167 161 154 147 144 142 139 140 140 139 133 131 128 126 122 119 120 117 111 108 105 101 97 91 88 90 86 83
208 203 210 217 214 214 217 222 228 228 222 196 193 196 192 181 173 165 155 148 147 144 139 137 138 136 132 128 124 121 120 118 115 113 109 107 107 105 104 101 95 86 82 82
209 197 217 210 202 217 218 218 222 225 211 198 198 193 188 182 170 161 152 149 147 142 137 133 130 127 125 125 122 119 117 114 113 112 108 108 108 103 99 97 94 89 86 87
213 209 211 193 191 204 208 212 211 209 200 184 162 157 168 159 156 150 146 144 141 140 137 133 129 128 126 123 120 118 116 114 113 113 111 110 107 103 100 96 94 91 86 84
217 219 215 197 168 190 213 210 187 191 186 174 176 199 174 136 135 134 135 137 136 135 131 128 127 129 127 123 120 118 116 112 111 110 109 106 105 104 101 99 98 95 87 81
217 220 212 147 153 181 208 182 153 179 183 182 193 205 124 130 127 129 131 132 132 131 128 126 128 129 126 122 118 115 115 113 111 110 110 108 107 107 108 107 101 95 91 81
215 221 203 143 173 195 84 84 137 159 169 162 129 119 129 130 129 129 130 132 131 128 123 125 129 128 123 118 118 118 116 114 112 112 111 111 109 109 110 113 110 103 98 90
213 203 94 132 134 74 64 109 129 139 144 142 134 132 131 129 128 128 130 131 130 128 125 125 129 129 123 122 123 122 119 118 116 114 108 110 114 117 118 115 110 107 105 96
176 145 130 130 119 110 109 117 133 140 143 142 138 134 132 128 126 125 127 130 131 131 128 124 123 120 121 125 127 127 124 120 119 117 113 106 103 102 101 100 101 103 101 98
171 142 140 128 107 101 99 110 122 127 135 139 137 136 134 130 129 128 127 129 133 132 129 127 126 122 126 132 134 129 124 121 120 116 111 100 84 63 73 62 56 79 98 99
162 146 156 129 105 109 117 120 124 127 128 132 134 134 132 129 130 130 130 132 132 130 128 128 127 126 129 134 136 134 132 131 129 126 121 117 109 89 58 63 61 57 53 64
48 92 91 116 109 109 115 120 125 127 129 126 127 132 131 131 133 131 132 135 135 132 130 130 129 129 133 135 134 134 134 133 132 130 130 128 126 121 110 85 71 67 63 66
130 140 130 121 113 113 117 120 118 117 118 120 124 126 128 131 133 135 136 137 135 133 132 131 129 129 134 135 133 132 132 128 131 130 133 131 128 127 127 126 117 102 86 83
127 149 142 130 126 124 128 128 125 124 124 123 125 127 129 132 134 132 131 133 135 135 134 134 130 131 136 136 135 137 137 137 134 132 132 129 129 128 124 123 121 122 121 112
135 136 140 143 145 143 143 141 138 136 135 131 129 129 129 129 129 129 133 140 143 140 138 137 134 137 140 139 137 134 126 121 135 140 137 137 136 134 131 132 130 129 127 124
175 163 161 161 164 162 154 147 144 143 139 136 135 131 131 131 131 133 136 138 133 131 135 135 135 138 141 142 143 139 136 136 145 146 142 140 139 136 134 135 132 129 122 106
199 192 176 175 171 161 153 148 146 144 142 140 139 139 141 140 140 138 137 132 128 125 127 131 134 137 138 141 141 141 142 146 149 140 138 139 137 136 134 131 132 131 125 125
169 161 152 158 161 153 148 148 146 142 144 147 144 142 143 143 143 143 141 138 136 133 130 128 130 138 136 134 139 144 143 142 138 136 135 134 142 137 137 136 130 124 125 128
148 149 148 143 148 151 149 150 149 147 150 151 148 148 148 147 145 143 141 134 130 128 133 134 139 134 135 141 158 146 142 141 139 137 137 139 133 131 132 131 131 129 128 127
138 145 145 143 140 150 157 159 158 156 155 156 156 154 149 144 144 144 143 132 125 124 130 135 138 135 135 138 159 137 137 139 137 136 136 135 133 133 133 135 137 136 134 134
125 137 144 149 152 154 158 159 158 156 152 151 152 150 147 145 144 140 133 130 132 134 140 141 137 125 129 140 137 130 133 134 134 134 135 137 137 138 138 138 142 139 135 134
118 131 141 147 148 146 145 149 152 154 152 152 152 152 152 148 149 146 139 135 138 144 143 131 120 123 141 149 135 135 136 136 136 136 137 138 140 142 140 140 137 136 136 139
125 131 133 138 140 140 143 147 148 148 146 148 151 152 149 145 141 135 128 126 127 136 130 118 124 136 159 141 133 134 134 136 137 139 141 140 139 136 133 134 134 136 137 144
135 133 131 141 149 147 143 147 146 144 144 143 144 147 145 141 140 136 133 134 134 137 128 127 135 149 154 137 136 135 133 129 131 134 137 136 133 130 130 132 136 141 142 144
150 141 133 147 149 148 153 152 152 150 145 140 135 132 129 127 129 130 130 133 134 133 133 135 142 155 146 134 134 134 133 132 136 141 136 137 135 135 136 136 141 142 138 133
157 150 151 153 150 153 153 152 150 148 145 140 136 134 131 130 131 133 133 135 139 142 140 141 145 146 140 137 136 137 138 137 138 138 138 137 135 138 137 139 141 138 136 127
Height
1474 1471 1473 1479 1482 1484 1486 1484 1488 1487 1486 1484 1488 1492 1496 1499 1502 1505 1508 1510 1512 1514 1517 1519 1522 1524 1526 1528 1529 1531 1532 1533 1534 1536 1537 1538 1538 1539 1539 1539 1540 1540 1540 1540
1481 1476 1475 1478 1477 1479 1481 1481 1481 1482 1484 1482 1487 1492 1496 1499 1501 1504 1507 1510 1512 1514 1516 1519 1521 1524 1526 1528 1529 1531 1532 1534 1535 1536 1537 1537 1538 1539 1539 1539 1540 1540 1540 1540
1482 1477 1479 1484 1475 1476 1477 1476 1478 1482 1482 1483 1488 1491 1494 1497 1500 1502 1505 1509 1512 1514 1516 1518 1521 1524 1526 1528 1530 1531 1533 1534 1535 1536 1537 1538 1539 1539 1540 1540 1540 1540 1541 1541
1477 1483 1495 1475 1469 1471 1473 1474 1475 1476 1479 1483 1487 1491 1494 1497 1499 1502 1505 1508 1511 1514 1516 1519 1521 1524 1526 1528 1530 1532 1533 1534 1536 1537 1538 1539 1540 1540 1541 1541 1541 1541 1542 1542
1476 1482 1479 1474 1471 1471 1474 1475 1475 1477 1480 1484 1488 1491 1494 1497 1499 1501 1504 1508 1511 1513 1516 1519 1522 1524 1526 1529 1531 1533 1534 1535 1536 1538 1539 1540 1541 1541 1542 1542 1543 1543 1543 1544
1476 1480 1484 1473 1470 1473 1475 1478 1475 1478 1480 1484 1486 1486 1490 1496 1498 1501 1504 1508 1511 1513 1516 1519 1522 1525 1527 1529 1531 1533 1535 1536 1537 1538 1539 1540 1541 1542 1543 1543 1544 1544 1544 1545
1474 1475 1469 1467 1471 1475 1481 1477 1477 1479 1481 1483 1484 1485 1491 1494 1498 1501 1504 1508 1511 1513 1516 1519 1522 1525 1527 1529 1531 1534 1535 1536 1537 1539 1540 1541 1542 1543 1544 1544 1544 1545 1544 1545
1470 1474 1474 1470 1471 1472 1474 1476 1477 1479 1481 1484 1486 1488 1491 1495 1498 1501 1505 1508 1511 1513 1516 1519 1522 1525 1527 1529 1531 1533 1535 1537 1538 1539 1541 1542 1543 1544 1545 1545 1545 1545 1545 1546
1465 1469 1470 1472 1473 1476 1477 1478 1479 1480 1482 1485 1487 1490 1493 1496 1499 1503 1506 1509 1511 1514 1517 1520 1523 1525 1527 1529 1531 1533 1535 1537 1538 1540 1541 1542 1544 1545 1546 1546 1546 1547 1547 1547
1468 1469 1472 1474 1475 1477 1478 1479 1480 1482 1483 1485 1488 1491 1494 1497 1500 1503 1506 1509 1512 1515 1517 1520 1523 1525 1527 1529 1532 1533 1535 1537 1539 1540 1542 1543 1544 1546 1547 1547 1547 1547 1548 1548
1468 1471 1473 1475 1476 1478 1479 1479 1481 1482 1484 1486 1488 1492 1495 1498 1501 1504 1507 1510 1513 1516 1518 1521 1523 1525 1528 1530 1532 1534 1536 1537 1539 1541 1542 1543 1544 1545 1546 1547 1548 1549 1549 1549
1467 1473 1473 1476 1478 1478 1479 1480 1481 1483 1486 1488 1490 1493 1496 1499 1502 1505 1508 1511 1513 1516 1519 1521 1524 1526 1528 1530 1532 1534 1536 1538 1540 1541 1542 1544 1545 1546 1547 1548 1548 1549 1549 1550
1474 1475 1475 1477 1478 1479 1480 1482 1483 1485 1487 1489 1492 1494 1496 1499 1503 1506 1508 1511 1514 1516 1519 1521 1524 1526 1528 1530 1532 1534 1536 1538 1540 1541 1543 1544 1546 1547 1548 1549 1550 1550 1551 1551
1476 1476 1477 1479 1480 1481 1482 1483 1485 1487 1489 1491 1493 1496 1498 1501 1504 1507 1509 1512 1514 1517 1519 1522 1524 1526 1529 1531 1532 1534 1536 1538 1540 1541 1543 1545 1547 1548 1549 1550 1551 1552 1553 1553
1476 1477 1478 1480 1481 1482 1484 1485 1487 1489 1491 1493 1495 1497 1499 1502 1505 1507 1510 1512 1514 1517 1519 1522 1524 1526 1529 1531 1533 1535 1536 1538 1540 1542 1544 1546 1547 1549 1550 1551 1552 1553 1554 1555
1477 1478 1479 1480 1482 1483 1485 1486 1488 1490 1492 1494 1496 1499 1501 1503 1505 1508 1510 1512 1514 1516 1519 1521 1523 1526 1528 1531 1533 1535 1536 1538 1540 1542 1545 1546 1548 1549 1551 1552 1553 1555 1555 1556
1477 1478 1479 1481 1482 1484 1485 1487 1489 1491 1493 1495 1497 1499 1501 1503 1506 1508 1510 1512 1514 1516 1518 1520 1522 1525 1527 1530 1533 1535 1536 1538 1540 1543 1545 1547 1548 1550 1551 1552 1554 1555 1555 1556
1477 1478 1479 1480 1482 1484 1486 1488 1489 1491 1493 1495 1497 1500 1502 1503 1506 1508 1510 1512 1514 1516 1518 1520 1522 1524 1527 1530 1532 1535 1536 1538 1541 1543 1545 1547 1548 1550 1551 1552 1553 1554 1555 1556
1476 1477 1479 1480 1482 1484 1485 1487 1489 1491 1493 1495 1497 1499 1501 1504 1506 1508 1510 1511 1514 1516 1518 1520 1522 1524 1526 1529 1532 1534 1536 1539 1541 1543 1545 1546 1548 1550 1551 1552 1553 1554 1555 1556
1476 1477 1478 1480 1482 1483 1485 1487 1489 1491 1493 1494 1496 1499 1501 1503 1506 1508 1509 1512 1514 1516 1517 1519 1522 1524 1527 1529 1532 1535 1537 1539 1541 1542 1544 1546 1548 1549 1551 1552 1553 1554 1555 1556
1475 1476 1478 1479 1481 1483 1484 1486 1488 1490 1492 1494 1496 1498 1500 1503 1505 1507 1509 1512 1514 1516 1518 1520 1522 1524 1527 1529 1532 1535 1537 1539 1541 1542 1544 1546 1548 1549 1551 1552 1553 1554 1555 1556
1475 1476 1477 1479 1481 1482 1484 1486 1487 1489 1491 1493 1496 1498 1500 1502 1505 1507 1510 1512 1514 1516 1518 1521 1523 1525 1527 1530 1533 1535 1537 1539 1541 1542 1544 1546 1548 1549 1550 1552 1553 1554 1555 1556
1474 1475 1476 1478 1479 1481 1483 1485 1487 1489 1490 1493 1495 1497 1500 1502 1505 1507 1509 1512 1514 1516 1519 1522 1524 1526 1528 1531 1533 1535 1537 1539 1541 1543 1544 1546 1548 1549 1550 1552 1553 1554 1555 1556
1473 1475 1476 1477 1479 1480 1482 1484 1486 1488 1490 1492 1495 1497 1500 1502 1505 1508 1509 1511 1514 1517 1520 1522 1524 1527 1529 1532 1534 1536 1538 1540 1542 1543 1545 1546 1548 1549 1551 1552 1553 1554 1555 1556
1473 1474 1475 1477 1478 1480 1481 1483 1486 1488 1490 1493 1495 1497 1500 1502 1505 1507 1509 1512 1515 1518 1521 1523 1526 1528 1531 1533 1535 1537 1539 1541 1542 1544 1546 1547 1548 1550 1551 1552 1553 1554 1555 1556
1472 1473 1475 1476 1478 1479 1481 1483 1485 1488 1490 1493 1495 1497 1500 1502 1505 1507 1510 1513 1516 1519 1522 1524 1527 1529 1532 1534 1536 1538 1540 1541 1543 1545 1546 1548 1549 1550 1551 1552 1553 1554 1555 1555
1471 1472 1474 1476 1478 1479 1481 1483 1485 1488 1490 1492 1495 1497 1499 1502 1505 1508 1511 1514 1517 1520 1523 1526 1528 1531 1533 1535 1537 1539 1540 1542 1543 1545 1547 1548 1549 1550 1551 1552 1553 1554 1554 1555